This demonstration page uses our WeatherBlox Daily Observations layout. Learn more.

Left ArrowRight Arrow

31.84235, -102.49876

Hourly Observations for May 15, 2015

Temp ( °F °C ) Dew Point ( °F °C ) Humidity (%) Winds ( mph kmh ) Pressure ( in mb ) Visibility ( mi km ) Precip ( " mm )
12:53 am 00:53 Clear 65 18.3 58 14.4 78 78 S 13 20 29.82 1010 10 16 0.00 0.00
1:53 am 01:53 Clear 63 17.2 57 13.9 81 81 SW 7 11 29.79 1009 10 16 0.00 0.00
2:53 am 02:53 Clear 62 16.7 57 13.9 84 84 SW 5 7 29.80 1009 10 16 0.00 0.00
3:53 am 03:53 Partly Cloudy 64 17.8 59 15 84 84 S 8 13 29.81 1009 10 16 0.00 0.00
4:30 am 04:30 Cloudy 64 17.8 60 15.6 87 87 SE 10 17 29.85 1011 8 13 0.00 0.00
4:40 am 04:40 Cloudy 65 18.3 61 16.1 87 87 S 9 15 29.85 1011 8 13 0.00 0.00
4:53 am 04:53 Mostly Cloudy with Mist and Fog 65 18.3 62 16.7 90 90 S 13 20 29.81 1009 6 10 0.00 0.00
5:12 am 05:12 Mostly Cloudy with Mist and Fog 65 18.3 62 16.7 90 90 S 12 19 29.85 1011 5 8 0.00 0.00
5:37 am 05:37 Cloudy with Mist and Fog 65 18.3 62 16.7 90 90 S 16 26 29.85 1011 5 8 0.00 0.00
5:53 am 05:53 Cloudy 65 18.3 62 16.7 90 90 S 16 26 29.82 1010 7 11 0.00 0.00
6:11 am 06:11 Cloudy 65 18.3 62 16.7 90 90 S 16 26 29.85 1011 7 11 0.00 0.00
6:31 am 06:31 Mostly Cloudy 65 18.3 62 16.7 90 90 S 13 20 29.85 1011 7 11 0.00 0.00
6:53 am 06:53 Mostly Sunny 64 17.8 61 16.1 90 90 S 13 20 29.84 1010 7 11 0.00 0.00
7:29 am 07:29 Partly Cloudy with Mist and Fog 64 17.8 61 16.1 90 90 S 9 15 29.88 1012 6 10 0.00 0.00
7:53 am 07:53 Mostly Cloudy with Mist and Fog 64 17.8 61 16.1 90 90 S 12 19 29.86 1011 6 10 0.00 0.00
8:34 am 08:34 Mostly Sunny 66 18.9 61 16.1 84 84 S 15 24 29.85 1011 7 11 0.00 0.00
8:53 am 08:53 Mostly Sunny 66 18.9 61 16.1 84 84 S 16 26 29.89 1012 8 13 0.00 0.00
9:27 am 09:27 Mostly Cloudy 68 20 61 16.1 78 78 SSW 16 26 29.88 1012 8 13 0.00 0.00
9:42 am 09:42 Partly Cloudy 67 19.4 61 16.1 81 81 SSW 16 26 29.88 1012 8 13 0.00 0.00
9:53 am 09:53 Mostly Sunny 69 20.6 61 16.1 76 76 S 16 26 29.88 1012 9 14 0.00 0.00
10:53 am 10:53 Mostly Sunny 72 22.2 61 16.1 68 68 S 16 26 29.87 1012 10 16 0.00 0.00
11:53 am 11:53 Sunny 75 23.9 61 16.1 62 62 SSW 16 26 29.85 1011 10 16 0.00 0.00
12:53 pm 12:53 Sunny 77 25 59 15 54 54 SSW 15 24 29.84 1010 10 16 0.00 0.00
1:53 pm 13:53 Sunny 80 26.7 59 15 49 49 S 15 24 29.81 1010 10 16 0.00 0.00
2:53 pm 14:53 Sunny 82 27.8 53 11.7 37 37 SSW 10 17 29.78 1009 10 16 0.00 0.00
3:53 pm 15:53 Mostly Sunny 82 27.8 50 10 33 33 SSW 8 13 29.74 1007 10 16 0.00 0.00
4:53 pm 16:53 Sunny 83 28.3 51 10.6 33 33 S 15 24 29.71 1006 10 16 0.00 0.00
5:53 pm 17:53 Sunny 84 28.9 51 10.6 32 32 SSE 18 30 29.69 1005 10 16 0.00 0.00
6:53 pm 18:53 Partly Cloudy 81 27.2 52 11.1 37 37 SSE 15 24 29.69 1005 10 16 0.00 0.00
7:53 pm 19:53 Mostly Sunny 80 26.7 55 12.8 42 42 SE 16 26 29.67 1005 10 16 0.00 0.03
8:53 pm 20:53 Clear 78 25.6 56 13.3 47 47 SSE 15 24 29.67 1005 10 16 0.00 0.00
9:53 pm 21:53 Clear 76 24.4 56 13.3 50 50 SSE 13 20 29.68 1005 10 16 0.00 0.00
10:53 pm 22:53 Partly Cloudy 75 23.9 57 13.9 54 54 SSE 22 35 29.69 1005 10 16 0.00 0.00
11:53 pm 23:53 Partly Cloudy 73 22.8 60 15.6 64 64 S 18 30 29.70 1006 10 16 0.00 0.00

Powered by AerisWeather